#timestamp,LO_Frequency,Hit 
1501286415.7,286046998.2,N
1501286435.6,286047001.1,N
1501286455.4,286046998.2,N
1501286475.2,286046999.4,N
1501286495.1,286046994.9,N
1501286496.0,286046994.9,N
1501286515.8,286046997.4,N
1501286535.6,286046997.2,N
1501286555.5,286046995.5,N
1501286575.3,286046996.3,N
1501286595.1,286046996.7,N
1501286615.8,286046995.1,N
1501286635.7,286046996.7,N
1501286655.5,286047002.4,N
1501286675.3,286047005.6,N
1501286695.2,286047008.2,N
1501286715.9,286047007.9,N
1501286735.7,286047008.3,N
1501286755.6,286047006.6,N
1501286775.4,286047008.5,N
1501286795.2,286047006.9,N
1501286815.1,286047007.3,N
1501286816.0,286047007.3,N
1501286835.8,286047004.9,N
1501286855.6,286047005.2,N
1501286875.5,286047004.7,N
1501286895.3,286047006.7,N
1501286915.1,286047007.7,N
1501286935.8,286047008.1,N
1501286955.7,286047011.8,N
1501286975.5,286047011.3,N
1501286995.3,286047011.0,N
1501287015.2,286047015.5,N
1501287035.9,286047011.3,N
1501287055.7,286047011.4,N
1501287075.6,286047013.6,N
1501287095.4,286047014.0,N
1501287115.2,286047013.9,N
1501287135.1,286047012.4,N
1501287136.0,286047012.4,N
1501287155.8,286047013.9,N
1501287175.6,286047009.4,N
1501287195.5,286047013.1,N
1501287215.3,286047011.5,N
1501287235.1,286047010.9,N
1501287255.9,286047011.9,N
1501287275.7,286047014.0,N
1501287295.5,286047013.8,N
1501287315.3,286047012.7,N
1501287335.2,286047013.5,N
1501287355.9,286047011.5,N
1501287375.7,286047012.6,N
1501287395.6,286047014.0,N
1501287415.4,286047013.8,N
1501287435.2,286047011.3,N
1501287455.1,286047009.3,N
1501287456.0,286047009.3,N
1501287475.8,286047012.3,N
1501287495.6,286047012.8,N
1501287515.5,286047011.6,N
1501287535.3,286047009.3,N
1501287555.1,286047012.0,N
1501287575.8,286047012.0,N
1501287595.7,286047007.7,N
1501287615.5,286047007.0,N
1501287635.3,286047008.8,N
1501287655.2,286047010.4,N
1501287675.0,286047013.6,N
1501287675.9,286047013.6,N
1501287695.7,286047012.2,N
1501287715.6,286047011.9,N
1501287735.4,286047009.6,N
1501287755.2,286047009.4,N
1501287775.1,286047010.8,N
1501287776.0,286047010.8,N
1501287795.8,286047010.1,N
1501287815.6,286047009.4,N
1501287835.5,286047010.3,N
1501287855.3,286047007.9,N
1501287875.1,286047012.4,N
1501287895.9,286047009.8,N
1501287915.7,286047008.2,N
1501287935.5,286047013.5,N
1501287955.3,286047013.7,N
1501287975.2,286047011.0,N
1501287995.0,286047009.7,N
1501287995.9,286047009.7,N
1501288015.7,286047009.4,N
1501288035.6,286047011.3,N
1501288055.4,286047011.8,N
1501288075.2,286047010.9,N
1501288095.1,286047013.6,N
1501288096.0,286047013.6,N
1501288115.8,286047011.6,N
1501288135.6,286047010.6,N
1501288155.5,286047010.6,N
1501288175.3,286047008.1,N
1501288195.1,286047009.7,N
1501288215.9,286047010.5,N
1501288235.7,286047007.5,N
1501288255.5,286047009.0,N
1501288275.4,286047009.5,N
1501288295.2,286047013.6,N
1501288315.0,286047013.5,N
1501288315.9,286047013.5,N
1501288335.7,286047009.3,N
1501288355.6,286047013.8,N
1501288375.4,286047016.0,N
1501288395.2,286047014.6,N
1501288415.1,286047014.2,N
1501288416.0,286047014.2,N
1501288435.8,286047014.6,N
1501288455.6,286047014.7,N
1501288475.5,286047015.2,N
1501288495.3,286047011.0,N
1501288515.1,286047014.0,N
1501288535.9,286047014.8,N
1501288555.7,286047015.5,N
1501288575.5,286047012.0,N
1501288595.4,286047011.7,N
1501288615.2,286047011.8,N
1501288635.0,286047013.5,N
1501288635.9,286047013.5,N
1501288655.8,286047011.7,N
1501288675.6,286047007.9,N
1501288695.4,286047008.1,N
1501288715.2,286047006.5,N
1501288735.1,286047006.4,N
1501288736.0,286047006.4,N
1501288755.8,286047006.5,N
1501288775.6,286047009.1,N
1501288795.5,286047004.6,N
1501288815.3,286047002.9,N
1501288835.1,286047003.6,N
1501288855.9,286047002.0,N
1501288875.7,286047003.9,N
1501288895.5,286047001.5,N
1501288915.4,286047004.3,N
1501288935.2,286046999.7,N
1501288955.0,286046998.6,N
1501288955.9,286046998.6,N
1501288975.8,286047001.1,N
1501288995.6,286047000.6,N
1501289015.4,286046998.5,N
1501289035.3,286047000.7,N
1501289055.1,286047000.4,N
1501289056.0,286047000.4,N
1501289075.8,286046999.3,N
1501289095.7,286046999.5,N
1501289115.5,286046999.3,N
1501289135.3,286046997.5,N
1501289155.1,286046996.5,N
1501289175.9,286046999.3,N
1501289195.7,286047000.6,N
1501289215.5,286047002.6,N
1501289235.4,286046999.7,N
1501289255.2,286047003.5,N
1501289275.0,286047003.1,N
1501289275.9,286047003.1,N
1501289295.8,286047005.6,N
1501289315.6,286047004.8,N
1501289335.4,286047003.6,N
1501289355.3,286047003.9,N
1501289375.1,286047003.2,N
1501289376.0,286047003.2,N
1501289395.8,286047005.5,N
1501289415.7,286047004.9,N
1501289435.5,286047006.6,N
1501289455.3,286047009.2,N
1501289475.1,286047006.4,N
1501289495.9,286047007.9,N
1501289515.7,286047009.8,N
1501289535.5,286047008.9,N
1501289555.4,286047007.7,N
1501289575.2,286047010.5,N
1501289595.0,286047009.7,N
1501289595.9,286047009.7,N
1501289615.8,286047010.6,N
1501289635.6,286047008.1,N
1501289655.4,286047008.1,N
1501289675.3,286047007.8,N
1501289695.1,286047007.8,N
1501289696.0,286047007.8,N
1501289715.8,286047006.6,N
1501289735.7,286047007.9,N
1501289755.5,286047007.7,N
1501289775.3,286047010.2,N
1501289795.1,286047011.1,N
1501289815.9,286047011.4,N
1501289835.7,286047012.3,N
1501289855.5,286047009.7,N
1501289875.4,286047011.3,N
1501289895.2,286047011.1,N
1501289915.0,286047011.5,N
1501289915.9,286047011.5,N
1501289935.8,286047013.4,N
1501289955.6,286047013.1,N
1501289975.4,286047011.0,N
1501289995.3,286047009.6,N
